DW1345 Weather Reports


Display with metric or nautical units.
time (UTC)temp
F
wind
direction
speed
MPH
gust
MPH
rain 1hr
in
rain 24hr
in
rain mn
in
humidity
%
barometer
mb
20260510014539 42 82 7.0 0.0 0.00 0.00 0.01 85 1008.3
20260510013035 42 118 5.0 0.0 0.00 0.00 0.01 86 1008.7
20260510011537 41 84 6.0 0.0 0.00 0.00 0.01 88 1008.9
20260510010038 41 73 5.0 0.0 0.00 0.00 0.01 90 1009.1
20260510004527 41 97 6.0 0.0 0.00 0.00 0.01 91 1009.2
20260510003025 41 123 6.0 0.0 0.00 0.00 0.01 91 1009.5
20260510001524 40 96 3.0 0.0 0.00 0.00 0.01 91 1009.7
20260510000020 40 59 2.0 0.0 0.00 0.00 0.01 91 1009.8
20260509234518 40 71 2.0 0.0 0.00 0.00 0.01 91 1009.9
20260509233016 40 53 3.0 0.0 0.00 0.00 0.01 91 1010.2
20260509231526 40 51 4.0 0.0 0.00 0.00 0.01 91 1010.4
20260509230012 40 41 3.0 0.0 0.00 0.00 0.01 91 1010.7
20260509224512 40 37 3.0 0.0 0.00 0.00 0.01 91 1010.8
20260509223011 40 30 3.0 0.0 0.00 0.00 0.01 91 1010.5
20260509221518 40 33 2.0 0.0 0.00 0.00 0.01 91 1011.2
20260509220003 40 12 2.0 0.0 0.00 0.00 0.13 91 1011.4
20260509214602 41 5 1.0 0.0 0.00 0.00 0.13 90 1011.4
20260509213103 41 281 0.0 0.0 0.00 0.00 0.13 91 1011.7
20260509211559 40 281 0.0 0.0 0.00 0.00 0.13 91 1011.8
20260509210104 40 282 1.0 0.0 0.00 0.00 0.13 91 1011.8
20260509204602 40 285 2.0 0.0 0.00 0.00 0.13 90 1012.2
20260509203059 40 263 2.0 0.0 0.00 0.00 0.13 90 1012.3
20260509201556 41 269 3.0 0.0 0.00 0.00 0.11 90 1012.3
20260509200059 41 269 4.0 0.0 0.00 0.00 0.10 90 1012.4
20260509194551 42 281 5.0 0.0 0.00 0.00 0.09 88 1012.3
20260509193059 43 304 6.0 0.0 0.00 0.00 0.07 86 1012.1
20260509191607 46 116 0.0 0.0 0.00 0.00 0.04 86 1011.7
20260509190054 46 116 0.0 0.0 0.00 0.00 0.04 86 1011.5
20260509184544 46 116 0.0 0.0 0.00 0.00 0.03 85 1011.5
20260509183043 46 117 1.0 0.0 0.00 0.00 0.03 84 1011.7
20260509181540 46 121 4.0 0.0 0.00 0.00 0.03 84 1011.9
20260509180038 46 105 4.0 0.0 0.00 0.00 0.03 83 1011.9
20260509174538 46 86 4.0 0.0 0.00 0.00 0.02 82 1012.1
20260509173050 46 121 4.0 0.0 0.00 0.00 0.02 81 1012.1
20260509171542 47 107 5.0 0.0 0.00 0.00 0.02 80 1012.4
20260509170039 47 103 5.0 0.0 0.00 0.00 0.02 79 1012.6
20260509164529 47 109 4.0 0.0 0.00 0.00 0.02 78 1012.7
20260509163029 48 105 3.0 0.0 0.00 0.00 0.02 78 1012.8
20260509161526 47 80 4.0 0.0 0.00 0.00 0.02 79 1013.1
20260509160026 47 79 4.0 0.0 0.00 0.00 0.02 79 1013.2
20260509154524 48 86 4.0 0.0 0.00 0.00 0.01 79 1013.4
20260509153022 48 105 2.0 0.0 0.00 0.00 0.01 78 1013.6
20260509151521 49 119 1.0 0.0 0.00 0.00 0.01 77 1013.8
20260509150022 49 199 0.0 0.0 0.00 0.00 0.01 76 1014.0
20260509144517 49 202 0.0 0.0 0.00 0.00 0.01 74 1014.2
20260509143017 50 202 1.0 0.0 0.00 0.00 0.00 71 1014.2
20260509141520 51 147 0.0 0.0 0.00 0.00 0.00 67 1014.3
20260509140018 51 141 0.0 0.0 0.00 0.00 0.00 62 1014.5
20260509134512 53 189 0.0 0.0 0.00 0.00 0.00 60 1014.5
20260509133012 52 189 0.0 0.0 0.00 0.00 0.00 61 1014.6
20260509131516 52 191 0.0 0.0 0.00 0.00 0.00 61 1014.5
20260509130011 52 192 0.0 0.0 0.00 0.00 0.00 65 1014.6
20260509124510 52 198 1.0 0.0 0.00 0.00 0.00 68 1014.7
20260509123019 52 227 0.0 0.0 0.00 0.00 0.00 67 1014.7
20260509121514 53 225 1.0 0.0 0.00 0.00 0.00 66 1014.7
20260509120009 52 237 1.0 0.0 0.00 0.00 0.00 67 1014.6
20260509114508 53 191 1.0 0.0 0.00 0.00 0.00 61 1014.6
20260509113006 54 202 0.0 0.0 0.00 0.00 0.00 65 1014.7
20260509111506 52 209 1.0 0.0 0.00 0.00 0.00 66 1014.8
20260509110010 51 225 1.0 0.0 0.00 0.00 0.00 69 1014.8
20260509104503 51 229 1.0 0.0 0.00 0.00 0.00 68 1014.9
20260509103003 52 209 2.0 0.0 0.00 0.00 0.00 63 1014.8
20260509101600 53 200 1.0 0.0 0.00 0.00 0.00 62 1015.1
20260509100059 54 186 1.0 0.0 0.00 0.00 0.00 65 1015.0
20260509094610 53 193 3.0 0.0 0.00 0.00 0.00 63 1015.1
20260509093054 53 193 4.0 0.0 0.00 0.00 0.00 62 1015.2
20260509091555 54 198 2.0 0.0 0.00 0.00 0.00 61 1015.2
20260509090101 53 248 2.0 0.0 0.00 0.00 0.00 64 1015.5
20260509084558 53 189 2.0 0.0 0.00 0.00 0.00 64 1015.4
20260509083050 53 189 1.0 0.0 0.00 0.00 0.00 62 1015.6
20260509081547 53 210 1.0 0.0 0.00 0.00 0.00 63 1015.6
20260509080046 53 194 4.0 0.0 0.00 0.00 0.00 63 1015.8
20260509074549 53 247 2.0 0.0 0.00 0.00 0.00 52 1015.8
20260509073041 52 248 3.0 0.0 0.00 0.00 0.00 56 1015.8
20260509071539 55 245 2.0 0.0 0.00 0.00 0.00 51 1015.8
20260509070036 55 162 6.0 0.0 0.00 0.00 0.00 43 1015.7
20260509064534 55 89 4.0 0.0 0.00 0.00 0.00 43 1015.5
20260509063030 53 170 6.0 0.0 0.00 0.00 0.00 44 1015.6
20260509061529 53 132 6.0 0.0 0.00 0.00 0.00 44 1015.5
20260509060027 53 116 7.0 0.0 0.00 0.00 0.00 45 1015.4
20260509054538 52 113 7.0 0.0 0.00 0.00 0.00 45 1015.5
20260509053059 52 155 5.0 0.0 0.00 0.00 0.00 47 1015.4
20260509051526 52 98 7.0 0.0 0.00 0.00 0.00 46 1015.4
20260509050036 52 102 7.0 0.0 0.00 0.00 0.00 47 1015.4
20260509044519 51 76 6.0 0.0 0.00 0.00 0.00 48 1015.4
20260509043018 51 88 7.0 0.0 0.00 0.00 0.00 49 1015.5
20260509041516 50 118 7.0 0.0 0.00 0.00 0.00 49 1015.6
20260509040016 50 85 7.0 0.0 0.00 0.00 0.00 50 1015.7
20260509034514 50 149 8.0 0.0 0.00 0.00 0.00 49 1015.7
20260509033013 50 142 7.0 0.0 0.00 0.00 0.00 48 1015.7
20260509031512 50 127 7.0 0.0 0.00 0.00 0.00 48 1015.8
20260509030025 50 128 6.0 0.0 0.00 0.00 0.00 50 1016.0
20260509024511 50 128 8.0 0.0 0.00 0.00 0.00 50 1015.9
20260509023020 49 130 9.0 0.0 0.00 0.00 0.00 50 1015.9
20260509021507 49 74 6.0 0.0 0.00 0.00 0.00 50 1016.3
20260509020006 49 68 4.0 0.0 0.00 0.00 0.00 51 1016.4